Location: Eastchurch
(51.4000°N, 0.8667°E)
Time: 22:54:26
(UTC+00:00)

Cosmos 1328 Rocket - Pass Details

Date: 19 January 2026
Orbit: 595 x 618 km, 82.5° (Epoch: 7 February)

Event Time Altitude Azimuth Distance (km) Brightness Sun altitude
Rises 16:55:00 0° 187° (S) 2,869 7.5 -5.1°
Reaches altitude 10° 16:57:13 10° 187° (S) 1,972 6.6 -5.4°
Maximum altitude 17:01:35 86° 99° (E) 626 3.6 -6.0°
Drops below altitude 10° 17:06:01 10° 11° (NNE) 1,996 5.8 -6.6°
Sets 17:08:16 0° 11° (NNE) 2,907 6.7 -6.9°
